This demonstration page uses our WeatherBlox Daily Observations layout. Learn more.

Left ArrowRight Arrow

Hourly Observations for October 10, 2016

Temp ( °F °C ) Dew Point ( °F °C ) Humidity (%) Winds ( mph kmh ) Pressure ( in mb ) Visibility ( mi km ) Precip ( " mm )
12:51 am 00:51 Clear 63 17.2 59 15 87 87 SE 6 9 29.98 1015 10 16 0.00 0.00
1:51 am 01:51 Clear 63 17.2 58 14.4 84 84 ESE 7 11 29.98 1015 10 16 0.00 0.00
2:51 am 02:51 Clear 64 17.8 56 13.3 75 75 SE 7 11 29.97 1015 10 16 0.00 0.00
3:51 am 03:51 Clear 63 17.2 55 12.8 76 76 SSE 9 15 29.98 1015 10 16 0.00 0.00
4:51 am 04:51 Clear 62 16.7 55 12.8 78 78 SSE 13 20 29.98 1015 10 16 0.00 0.00
5:51 am 05:51 Clear 63 17.2 53 11.7 70 70 SE 12 19 30.00 1016 10 16 0.00 0.00
6:51 am 06:51 Sunny 63 17.2 53 11.7 70 70 SE 12 19 30.03 1017 10 16 0.00 0.00
7:51 am 07:51 Sunny 67 19.4 53 11.7 61 61 SE 13 20 30.05 1018 10 16 0.00 0.00
8:51 am 08:51 Sunny 71 21.7 54 12.2 55 55 ESE 13 20 30.05 1018 10 16 0.00 0.00
9:51 am 09:51 Sunny 76 24.4 54 12.2 47 47 ESE 12 19 30.04 1017 10 16 0.00 0.00
10:51 am 10:51 Sunny 78 25.6 55 12.8 45 45 ESE 6 9 30.03 1017 10 16 0.00 0.00
11:51 am 11:51 Sunny 81 27.2 57 13.9 44 44 VRB 6 9 30.00 1016 10 16 0.00 0.00
12:51 pm 12:51 Sunny 82 27.8 57 13.9 42 42 S 3 6 29.96 1015 10 16 0.00 0.00
1:51 pm 13:51 Sunny 85 29.4 55 12.8 36 36 S 5 7 29.93 1013 10 16 0.00 0.00
2:51 pm 14:51 Sunny 87 30.6 46 7.8 24 24 Calm 29.91 1013 10 16 0.00 0.00
3:51 pm 15:51 Sunny 88 31.1 46 7.8 23 23 undefined N/A 29.90 1012 10 16 0.00 0.00
4:51 pm 16:51 Sunny 88 31.1 45 7.2 22 22 Calm 29.89 1012 10 16 0.00 0.00
5:51 pm 17:51 Sunny 83 28.3 49 9.4 31 31 Calm 29.90 1012 10 16 0.00 0.00
6:51 pm 18:51 Clear 74 23.3 60 15.6 62 62 N 6 9 29.93 1014 10 16 0.00 0.00
7:51 pm 19:51 Clear with Light Rain 71 21.7 60 15.6 68 68 NNW 5 7 29.94 1014 10 16 0.00 0.03
8:51 pm 20:51 Clear with Light Rain 68 20 59 15 73 73 E 6 9 29.96 1014 10 16 0.00 0.03
9:51 pm 21:51 Clear with Light Rain 67 19.4 56 13.3 68 68 E 6 9 29.95 1014 10 16 0.00 0.03
10:51 pm 22:51 Clear 65 18.3 55 12.8 70 70 SW 5 7 29.96 1014 10 16 0.00 0.03
11:51 pm 23:51 Clear 63 17.2 56 13.3 78 78 Calm 29.96 1015 10 16 0.00 0.00

Powered by AerisWeather